Location: Kuffner-Sternwarte
(48.2130°N, 16.2960°E)
Time: 06:30:56
(UTC+02:00)

Envisat - Pass Details

Date: 25 September 2024
Orbit: 762 x 764 km, 98.3° (Epoch: 04 October)

Event Time Altitude Azimuth Distance (km) Brightness Sun altitude
Rises 04:47:20 0° 9° (N) 3,237 6.7 -20.1°
Reaches altitude 10° 04:49:42 10° 4° (N) 2,307 5.8 -19.8°
Maximum altitude 04:54:34 48° 291° (WNW) 991 3.2 -19.0°
Enters shadow 04:56:10 36° 244° (WSW) 1,203 3.5 -18.8°
